Location: Bavegemberg
(50.9500°N, 3.8833°E)
Time: 14:28:51
(UTC+00:00)

Cosmos 2082 Rocket - Pass Details

Date: 23 May 2024
Orbit: 832 x 853 km, 71.0° (Epoch: 16 June)

Event Time Altitude Azimuth Distance (km) Brightness Sun altitude
Exits shadow 00:07:00 28° 159° (SSE) 1,558 3.1 -18.2°
Maximum altitude 00:09:26 42° 109° (ESE) 1,197 2.9 -18.1°
Drops below altitude 10° 00:14:47 10° 40° (NE) 2,492 5.5 -18.0°
Sets 00:17:21 0° 34° (NE) 3,431 6.5 -18.0°
